• Join FlightAware (Why Join?)
  • Login
  • US Flag 
02:13PM EDT


 

Airport Tracker/Info


-or-


 

Live Flight TrackerFlight Track Log ✈ LOG6852 ✈ 19-Oct-2013 ✈ EGPR / BRR - EGPF / GLA

Flight Track Log - Related Links

Times and Time Zones

All times are in EDT time to prevent confusion due to time zone crossing. See the LOG6852 flight status page for this flight to view local times or setup timezone preferences in your user account.

Time Position Orientation Groundspeed Altitude Reporting Facility
EDT Latitude Longitude Course Direction KTS MPH feet Rate Location/Type
06:24AM 57.0046 -7.4108 140° Southeast 1 1 1,600  Level FlightAware UK
06:24AM 57.0001 -7.3976 122° Southeast 1 1 2,000 1,140 Climbing FlightAware UK
06:24AM 56.9964 -7.3847 118° Southeast 1 1 2,300 960 Climbing FlightAware UK
06:25AM 56.9926 -7.3729 120° Southeast 1 1 2,600 780 Climbing FlightAware UK
06:25AM 56.9891 -7.3605 117° Southeast 1 1 2,800 480 Climbing FlightAware UK
06:25AM 56.9845 -7.3479 124° Southeast 1 1 2,900 480 Climbing FlightAware UK
06:26AM 56.9797 -7.3351 125° Southeast 1 1 3,100 300 Climbing FlightAware UK
06:26AM 56.9746 -7.3210 124° Southeast 1 1 3,100 480 Level FlightAware UK
06:26AM 56.9686 -7.3066 127° Southeast 1 1 3,400 960 Climbing FlightAware UK
06:27AM 56.9621 -7.2922 130° Southeast 1 1 3,700 660 Climbing FlightAware UK
06:27AM 56.9564 -7.2784 127° Southeast 1 1 3,800 540 Climbing FlightAware UK
06:27AM 56.9496 -7.2595 123° Southeast 1 1 4,100 720 Climbing FlightAware UK
06:28AM 56.9425 -7.2407 125° Southeast 1 1 4,400 540 Climbing FlightAware UK
06:28AM 56.9371 -7.2263 125° Southeast 1 1 4,500 660 Climbing FlightAware UK
06:28AM 56.9314 -7.2125 127° Southeast 1 1 4,800 780 Climbing FlightAware UK
06:29AM 56.9256 -7.1984 127° Southeast 1 1 5,000 780 Climbing FlightAware UK
06:29AM 56.9198 -7.1845 128° Southeast 1 1 5,300 720 Climbing FlightAware UK
06:29AM 56.9106 -7.1604 125° Southeast 1 1 5,600 720 Climbing FlightAware UK
06:30AM 56.9050 -7.1460 126° Southeast 1 1 5,900 780 Climbing FlightAware UK
06:30AM 56.8989 -7.1322 129° Southeast 1 1 6,100 660 Climbing FlightAware UK
06:30AM 56.8912 -7.1132 127° Southeast 1 1 6,400 540 Climbing FlightAware UK
06:31AM 56.8857 -7.0988 125° Southeast 1 1 6,500 480 Climbing FlightAware UK
06:31AM 56.8772 -7.0728 121° Southeast 1 1 6,800 600 Climbing FlightAware UK
06:31AM 56.8720 -7.0569 121° Southeast 1 1 7,000 540 Climbing FlightAware UK
06:32AM 56.8631 -7.0387 132° Southeast 1 1 7,200 660 Climbing FlightAware UK
06:32AM 56.8562 -7.0249 133° Southeast 1 1 7,500 480 Climbing FlightAware UK
06:32AM 56.8496 -7.0096 128° Southeast 1 1 7,500  Level FlightAware UK
06:33AM 56.8431 -6.9929 126° Southeast 1 1 7,500  Level FlightAware UK
06:33AM 56.8343 -6.9727 128° Southeast 1 1 7,500  Level FlightAware UK
06:33AM 56.8265 -6.9556 130° Southeast 1 1 7,500  Level FlightAware UK
06:34AM 56.8189 -6.9373 127° Southeast 1 1 7,500  Level FlightAware UK
06:34AM 56.8117 -6.9173 123° Southeast 1 1 7,500  Level FlightAware UK
06:34AM 56.8042 -6.8980 126° Southeast 1 1 7,500  Level FlightAware UK
06:35AM 56.7945 -6.8735 126° Southeast 1 1 7,500  Level FlightAware UK
06:35AM 56.7871 -6.8555 127° Southeast 1 1 7,500  Level FlightAware UK
06:35AM 56.7800 -6.8376 126° Southeast 1 1 7,500  Level FlightAware UK
06:36AM 56.7728 -6.8192 126° Southeast 1 1 7,500  Level FlightAware UK
06:36AM 56.7652 -6.8013 128° Southeast 1 1 7,500  Level FlightAware UK
06:36AM 56.7577 -6.7834 127° Southeast 1 1 7,500  Level FlightAware UK
06:37AM 56.7478 -6.7591 126° Southeast 1 1 7,500  Level FlightAware UK
06:37AM 56.7407 -6.7408 125° Southeast 1 1 7,500  Level FlightAware UK
06:37AM 56.7336 -6.7233 126° Southeast 1 1 7,500  Level FlightAware UK
06:37AM 56.7263 -6.7058 127° Southeast 1 1 7,500  Level FlightAware UK
06:38AM 56.7188 -6.6880 128° Southeast 1 1 7,500  Level FlightAware UK
06:38AM 56.7115 -6.6703 127° Southeast 1 1 7,500  Level FlightAware UK
06:38AM 56.7046 -6.6515 124° Southeast 1 1 7,500  Level FlightAware UK
06:39AM 56.6977 -6.6326 124° Southeast 1 1 7,500  Level FlightAware UK
06:39AM 56.6906 -6.6142 125° Southeast 1 1 7,500  Level FlightAware UK
06:39AM 56.6812 -6.5900 125° Southeast 1 1 7,500  Level FlightAware UK
06:40AM 56.6740 -6.5718 126° Southeast 1 1 7,500  Level FlightAware UK
06:40AM 56.6667 -6.5539 126° Southeast 1 1 7,500 120 Level FlightAware UK
06:40AM 56.6593 -6.5361 127° Southeast 1 1 7,600 120 Climbing FlightAware UK
06:41AM 56.6519 -6.5185 127° Southeast 1 1 7,600  Level FlightAware UK
06:41AM 56.6445 -6.5010 128° Southeast 1 1 7,600  Level FlightAware UK
06:41AM 56.6343 -6.4776 128° Southeast 1 1 7,600 -300 Level FlightAware UK
06:42AM 56.6267 -6.4597 128° Southeast 1 1 7,400 -180 Descending FlightAware UK
06:42AM 56.6168 -6.4352 126° Southeast 1 1 7,500 -180 Climbing FlightAware UK
06:42AM 56.6096 -6.4168 125° Southeast 1 1 7,300 -180 Descending FlightAware UK
06:43AM 56.6025 -6.3984 125° Southeast 1 1 7,400 120 Climbing FlightAware UK
06:43AM 56.5957 -6.3799 124° Southeast 1 1 7,400  Level FlightAware UK
06:43AM 56.5886 -6.3618 126° Southeast 1 1 7,400  Level FlightAware UK
06:43AM 56.5813 -6.3440 127° Southeast 1 1 7,400 120 Level FlightAware UK
06:44AM 56.5739 -6.3271 129° Southeast 1 1 7,500  Climbing FlightAware UK
06:44AM 56.5666 -6.3103 128° Southeast 1 1 7,400  Descending FlightAware UK
06:44AM 56.5595 -6.2930 127° Southeast 1 1 7,500 120 Climbing FlightAware UK
06:45AM 56.5521 -6.2756 127° Southeast 1 1 7,500  Level FlightAware UK
06:45AM 56.5413 -6.2542 133° Southeast 1 1 7,500  Level FlightAware UK
06:45AM 56.5309 -6.2327 131° Southeast 1 1 7,500  Level FlightAware UK
06:46AM 56.5232 -6.2164 131° Southeast 1 1 7,500  Level FlightAware UK
06:46AM 56.5155 -6.2001 130° Southeast 1 1 7,500  Level FlightAware UK
06:46AM 56.5079 -6.1834 130° Southeast 1 1 7,500 120 Level FlightAware UK
06:47AM 56.5000 -6.1669 131° Southeast 1 1 7,600 660 Climbing FlightAware UK
06:47AM 56.4927 -6.1508 129° Southeast 1 1 7,900 960 Climbing FlightAware UK
06:47AM 56.4866 -6.1373 129° Southeast 1 1 8,200 120 Climbing FlightAware UK
06:48AM 56.4791 -6.1223 132° Southeast 1 1 8,000 -360 Descending FlightAware UK
06:48AM 56.4707 -6.1077 136° Southeast 1 1 8,000 120 Level FlightAware UK
06:48AM 56.4629 -6.0913 131° Southeast 1 1 8,100 120 Climbing FlightAware UK
06:48AM 56.4556 -6.0725 125° Southeast 1 1 8,100 -360 Level FlightAware UK
06:49AM 56.4497 -6.0492 115° Southeast 1 1 7,900 -180 Descending FlightAware UK
06:49AM 56.4426 -6.0288 122° Southeast 1 1 8,000 -180 Climbing FlightAware UK
06:49AM 56.4326 -6.0030 125° Southeast 1 1 7,800 -180 Descending FlightAware UK
06:50AM 56.4234 -5.9777 123° Southeast 1 1 7,900 240 Climbing FlightAware UK
06:50AM 56.4171 -5.9612 125° Southeast 1 1 8,000 300 Climbing FlightAware UK
06:50AM 56.4097 -5.9447 129° Southeast 1 1 8,100 -180 Climbing FlightAware UK
06:51AM 56.4021 -5.9272 128° Southeast 1 1 7,900 -180 Descending FlightAware UK
06:51AM 56.3952 -5.9081 123° Southeast 1 1 8,000 120 Climbing FlightAware UK
06:51AM 56.3873 -5.8901 128° Southeast 1 1 8,000  Level FlightAware UK
06:52AM 56.3802 -5.8715 125° Southeast 1 1 8,000  Level FlightAware UK
06:52AM 56.3736 -5.8530 123° Southeast 1 1 8,000  Level FlightAware UK
06:52AM 56.3643 -5.8291 125° Southeast 1 1 8,000 240 Level FlightAware UK
06:53AM 56.3541 -5.8066 129° Southeast 1 1 8,200 120 Climbing FlightAware UK
06:53AM 56.3457 -5.7811 121° Southeast 1 1 8,100 -480 Descending FlightAware UK
06:53AM 56.3406 -5.7603 114° Southeast 1 1 7,900 -180 Descending FlightAware UK
06:54AM 56.3304 -5.7260 118° Southeast 1 1 8,000  Climbing FlightAware UK
06:55AM 56.3159 -5.6789 119° Southeast 1 1 7,900  Descending FlightAware UK
06:55AM 56.3089 -5.6593 123° Southeast 1 1 8,000 120 Climbing FlightAware UK
06:55AM 56.3021 -5.6392 121° Southeast 1 1 8,000  Level FlightAware UK
06:56AM 56.2839 -5.6011 131° Southeast 1 1 8,000 -120 Level FlightAware UK
06:57AM 56.2629 -5.5679 139° Southeast 1 1 7,900  Descending FlightAware UK
06:57AM 56.2526 -5.5455 129° Southeast 1 1 8,000 60 Climbing FlightAware UK
06:58AM 56.2384 -5.5189 134° Southeast 1 1 8,000  Level FlightAware UK
06:58AM 56.2202 -5.4893 138° Southeast 1 1 8,000 -120 Level FlightAware UK
06:58AM 56.2109 -5.4747 139° Southeast 1 1 7,900  Descending FlightAware UK
06:59AM 56.2014 -5.4598 139° Southeast 1 1 8,000 120 Climbing FlightAware UK
06:59AM 56.1857 -5.4349 138° Southeast 1 1 8,000  Level FlightAware UK
07:00AM 56.1712 -5.4001 127° Southeast 1 1 8,000  Level FlightAware UK
07:00AM 56.1636 -5.3814 126° Southeast 1 1 8,000  Level FlightAware UK
07:00AM 56.1563 -5.3629 125° Southeast 1 1 8,000  Level FlightAware UK
07:01AM 56.1487 -5.3446 127° Southeast 1 1 8,000  Level FlightAware UK
07:01AM 56.1411 -5.3267 127° Southeast 1 1 8,000  Level FlightAware UK
07:01AM 56.1335 -5.3089 127° Southeast 1 1 8,000 -180 Level FlightAware UK
07:02AM 56.1208 -5.2796 128° Southeast 1 1 7,900 -180 Descending FlightAware UK
07:02AM 56.1119 -5.2642 136° Southeast 1 1 7,900 -360 Level FlightAware UK
07:02AM 56.1019 -5.2520 146° Southeast 1 1 7,700 -600 Descending FlightAware UK
07:03AM 56.0879 -5.2354 147° Southeast 1 1 7,500 -600 Descending FlightAware UK
07:03AM 56.0703 -5.2108 142° Southeast 1 1 7,200 -660 Descending FlightAware UK
07:04AM 56.0599 -5.1962 142° Southeast 1 1 7,000 -720 Descending FlightAware UK
07:04AM 56.0452 -5.1786 146° Southeast 1 1 6,700 -660 Descending FlightAware UK
07:04AM 56.0307 -5.1606 145° Southeast 1 1 6,500 -300 Descending FlightAware UK
07:05AM 56.0198 -5.1473 146° Southeast 1 1 6,500 -360 Level FlightAware UK
07:05AM 56.0089 -5.1346 147° Southeast 1 1 6,300 -180 Descending FlightAware UK
07:05AM 55.9994 -5.1216 142° Southeast 1 1 6,400 -300 Climbing FlightAware UK
07:06AM 55.9868 -5.1016 139° Southeast 1 1 6,100 -660 Descending FlightAware UK
07:06AM 55.9728 -5.0821 142° Southeast 1 1 5,900 -480 Descending FlightAware UK
07:06AM 55.9623 -5.0685 144° Southeast 1 1 5,800 -540 Descending FlightAware UK
07:07AM 55.9453 -5.0446 142° Southeast 1 1 5,500 -660 Descending FlightAware UK
07:07AM 55.9362 -5.0276 134° Southeast 1 1 5,300 -180 Descending FlightAware UK
07:08AM 55.9261 -5.0131 141° Southeast 1 1 5,400  Climbing FlightAware UK
07:08AM 55.9131 -4.9943 141° Southeast 1 1 5,300 -180 Descending FlightAware UK
07:08AM 55.9005 -4.9750 139° Southeast 1 1 5,300 120 Level FlightAware UK
07:09AM 55.8915 -4.9607 138° Southeast 1 1 5,400 120 Climbing FlightAware UK
07:09AM 55.8823 -4.9470 140° Southeast 1 1 5,400  Level FlightAware UK
07:09AM 55.8734 -4.9328 138° Southeast 1 1 5,400  Level FlightAware UK
07:10AM 55.8614 -4.9133 138° Southeast 1 1 5,400  Level FlightAware UK
07:10AM 55.8518 -4.8987 140° Southeast 1 1 5,400  Level FlightAware UK
07:10AM 55.8428 -4.8839 137° Southeast 1 1 5,400  Level FlightAware UK
07:11AM 55.8339 -4.8686 136° Southeast 1 1 5,400  Level FlightAware UK
07:11AM 55.8253 -4.8529 134° Southeast 1 1 5,400 -180 Level FlightAware UK
07:11AM 55.8167 -4.8373 135° Southeast 1 1 5,300 -540 Descending FlightAware UK
07:11AM 55.8084 -4.8203 131° Southeast 1 1 5,100 -720 Descending FlightAware UK
07:12AM 55.7999 -4.8038 133° Southeast 1 1 4,900 -720 Descending FlightAware UK
07:12AM 55.7905 -4.7884 137° Southeast 1 1 4,700 -720 Descending FlightAware UK
07:12AM 55.7806 -4.7730 139° Southeast 1 1 4,500 -720 Descending FlightAware UK
07:13AM 55.7728 -4.7547 127° Southeast 1 1 4,300 -840 Descending FlightAware UK
07:13AM 55.7712 -4.7298 96° East 1 1 4,000 -1,020 Descending FlightAware UK
07:13AM 55.7730 -4.7049 83° East 1 1 3,700 -840 Descending FlightAware UK
07:14AM 55.7750 -4.6809 82° East 1 1 3,500 -720 Descending FlightAware UK
07:14AM 55.7779 -4.6584 77° East 1 1 3,300 -840 Descending FlightAware UK
07:14AM 55.7808 -4.6358 77° East 1 1 3,000 -1,020 Descending FlightAware UK
07:14AM 55.7842 -4.6138 75° East 1 1 2,700 -720 Descending FlightAware UK
07:15AM 55.7869 -4.5942 76° East 1 1 2,600 -300 Descending FlightAware UK
07:15AM 55.7974 -4.5730 49° Northeast 1 1 2,500 -600 Descending FlightAware UK
07:15AM 55.8062 -4.5599 40° Northeast 1 1 2,200 -1,020 Descending FlightAware UK
07:16AM 55.8166 -4.5407 46° Northeast 1 1 1,800 -720 Descending FlightAware UK
07:16AM 55.8285 -4.5154 50° Northeast 1 1 1,500 -600 Descending FlightAware UK
07:17AM 55.8381 -4.4991 44° Northeast 1 1 1,200 -660 Descending FlightAware UK
07:18AM 55.8477 -4.4774 52° Northeast 1 1 800 -600 Descending FlightAware UK
07:18AM 55.8563 -4.4628 43° Northeast 1 1 600 -420 Descending FlightAware UK
07:18AM 55.8604 -4.4547 48° Northeast 1 1 500 -360 Descending FlightAware UK
07:19AM 55.8647 -4.4468 46° Northeast 1 1 400 -360 Descending FlightAware UK
07:21AM 55.8719 -4.4331 47° Northeast  Level Estimated